Miscellaneous Local Product
Issued by NWS Hastings, NE

Home | Current Version | Previous Version | Graphics & Text | Print | Product List | Glossary On
Versions: 1 2 3 4 5 6 7 8 9 10 11 12 13 14 15 16 17 18 19 20 21 22 23 24 25 26 27 28 29 30 31 32 33 34 35 36 37 38 39 40 41 42 43 44 45 46 47 48 49 50
099
AXUS43 KGID 241602
MISGRI

GID CWA HOURLY WEATHER ROUNDUP
NATIONAL WEATHER SERVICE HASTINGS NE
1100 AM CDT SAT SEP 24 2016

NOTE: "FAIR" INDICATES FEW OR NO CLOUDS BELOW 12,000 FEET WITH NO
SIGNIFICANT WEATHER AND/OR OBSTRUCTIONS TO VISIBILITY.

...SOUTH CENTRAL NEBRASKA...

CITY           SKY/WX    TMP DP  RH WIND       PRES   REMARKS
GRAND ISLAND   CLOUDY    70  68  93 S10       29.91S
HASTINGS       LGT RAIN  69  67  93 S9        29.94R FOG
KEARNEY        CLOUDY    64  54  68 W12       29.92R
ORD            PTSUNNY   68  59  73 W7        29.89R
YORK           CLOUDY    75  68  78 S13G18    29.92S
AURORA         LGT RAIN  72  70  95 S12       29.91F
LEXINGTON      MOSUNNY   60  49  66 NW8       29.95R
HOLDREGE       PTSUNNY   63  52  68 W8        29.94R
HEBRON         PTSUNNY   78  68  71 S15G23    29.93R

...NEBRASKA PANHANDLE...

CITY           SKY/WX    TMP DP  RH WIND       PRES   REMARKS
CHADRON        SUNNY     59  43  55 SW16      29.91R
ALLIANCE       SUNNY     58  42  55 W13       29.96R
SCOTTSBLUFF    SUNNY     57  41  55 W6        29.98R
SIDNEY         SUNNY     57  42  57 W8        30.02R

...WESTERN AND NORTH CENTRAL NEBRASKA...

CITY           SKY/WX    TMP DP  RH WIND       PRES   REMARKS
VALENTINE      PTSUNNY   61  44  53 SW14      29.91R
AINSWORTH      CLOUDY    64  48  56 CALM      29.90S
ONEILL         PTSUNNY   73  66  78 S12G17    29.88S
BROKEN BOW     CLOUDY    62  50  64 W8        29.92R
IMPERIAL       SUNNY     61  41  47 NW6       29.99S
NORTH PLATTE   MOSUNNY   61  47  59 W8        29.97R
MCCOOK         SUNNY     62  47  57 NW8       29.96S

...EASTERN NEBRASKA...

CITY           SKY/WX    TMP DP  RH WIND       PRES   REMARKS
NORFOLK        CLOUDY    75  68  78 SE18      29.91R
SO SIOUX CITY  CLOUDY    80  68  66 SE18G26   29.92F
TEKAMAH        CLOUDY    82  68  62 SE12      29.94F
COLUMBUS       PTSUNNY   73  64  73 S9        29.93R
ALBION         CLOUDY    71  67  88 S14       29.91R
OMAHA EPPLEY   PTSUNNY   81  69  67 S15       29.95F
OFFUTT AFB     MOSUNNY   80  70  70 SE15      29.94F
MILLARD        CLOUDY    81  70  69 SE9       29.95R
LINCOLN        PTSUNNY   78  69  73 S22       29.94R
NEBRASKA CITY  PTSUNNY   81  61  50 S14G21    29.97S
BEATRICE       CLOUDY    75  73  91 S10       29.96R
FALLS CITY     CLOUDY    84  71  65 S15G24    29.97F

...NORTHERN KANSAS...

CITY           SKY/WX    TMP DP  RH WIND       PRES   REMARKS
GOODLAND       PTSUNNY   61  42  49 NW9       30.02R
HILL CITY      CLOUDY    64  52  64 NW9       29.95S
NORTON         MOSUNNY   63  43  48 N10       29.96R
PHILLIPSBURG   LGT RAIN  63  55  77 W6        29.95S
SMITH CENTER   CLOUDY    63  59  88 CALM      29.98R
HAYS           CLOUDY    63  50  63 W7        29.94F
CONCORDIA      LGT RAIN  77  72  84 S13G22    29.95R
SALINA         TSTM      75  72  90 S14G23    29.96R FOG
TOPEKA         CLOUDY    80  72  76 SE13      29.99S



USA.gov is the U.S. government's official web portal to all federal, state and local government web resources and services.